User: anonymous   Login
Location: Chagrin Falls Park
(41.4139°N, 81.3865°W)
Time: 05:25:26
(UTC+00:00)
Language:

FO-29 - Orbit

View from above orbital plane
View from above orbital plane
View from above satellite
View from above satellite

Ground track
Ground track

The orbit data is extracted from the following two-line orbital elements,

1 24278U 96046B   21298.14627124 -.00000005  00000-0  29740-4 0  9999
2 24278  98.5514 348.8532 0350527 173.4327 187.1588 13.53106938243780
Epoch (UTC): 25 October 2021 03:30:37
Eccentricity: 0.0350527
inclination: 98.5514°
perigee height: 800 km
apogee height: 1321 km
right ascension of ascending node: 348.8532°
argument of perigee: 173.4327°
revolutions per day: 13.53106938
mean anomaly at epoch: 187.1588°
orbit number at epoch: 24378

The dashed part of the orbit path shows where the satellite is in the earth's shadow,  

DLR